User: anonymous   Login
Location: Pine Mountain Observatory
(43.7910°N, 120.9377°W)
Time: 13:10:56
(UTC-08:00)
Language:

APEX - Orbit

View from above orbital plane
View from above orbital plane
View from above satellite
View from above satellite

Ground track
Ground track

The orbit data is extracted from the following two-line orbital elements,

1 23191U 94046A   15032.22257385  .00044607  00000-0  16988-2 0  1137
2 23191 069.9272 038.2808 0707112 354.0686 072.6677 14.13055552992761
Epoch (UTC): 01 February 2015 05:20:30
Eccentricity: 0.0707112
inclination: 69.9272°
perigee height: 338 km
apogee height: 1360 km
right ascension of ascending node: 38.2808°
argument of perigee: 354.0686°
revolutions per day: 14.13055552
mean anomaly at epoch: 72.6677°
orbit number at epoch: 99276

The dashed part of the orbit path shows where the satellite is in the earth's shadow,  

DLR